Weather History for TNCM - December, 2013

Change the Weather History Date:

Wednesday, December 4, 2013

  Actual Average Record
Temperature  
Mean Temperature 82 °F -  
Max Temperature 86 °F 82 °F 86 °F (1997)
Min Temperature 77 °F 73 °F 71 °F (1996)
Cooling Degree Days 16    
Growing Degree Days 32 (Base 50)    
Moisture  
Dew Point 72 °F    
Average Humidity 74    
Maximum Humidity 89    
Minimum Humidity 58    
Precipitation  
Precipitation 0.04 in 0.11 in - ()
Sea Level Pressure  
Sea Level Pressure 30.00 in    
Wind  
Wind Speed 6 mph ()    
Max Wind Speed 10 mph    
Max Gust Speed -    
Visibility 7.6 miles    
Events Rain    
Averages and records for this station are not official NWS values.
T = Trace of Precipitation, MM = Missing Value Source: Averaged Metar Reports

Daily Weather History Graph

Daily Weather History Graph

Search for Another Location

Airport or City:

Trip Planner

Search our weather history database for the weather conditions in past years. The results will help you decide how hot, cold, wet, or windy it might be!

Date:

Astronomy

Dec. 04, 2013 Rise Set
Actual Time 6:29 AM AST 5:35 PM AST
Civil Twilight 6:06 AM AST 5:59 PM AST
Nautical Twilight 5:39 AM AST 6:26 PM AST
Astronomical Twilight 5:12 AM AST 6:53 PM AST
Moon 7:58 AM AST (12/4) 7:34 PM AST (12/4)
Length of Visible Light 11h 53m
Length of Day
11h 06m
Waxing Crescent, 4% of the Moon is Illuminated
Dec 4
Waxing Crescent
Dec 9
First Quarter
Dec 17
Full
Dec 25
Last Quarter
Jan 1
New

Hourly Weather History & Observations

Time (AST) Temp. Heat Index Dew Point Humidity Pressure Visibility Wind Dir Wind Speed Gust Speed Precip Events Conditions
12:00 AM 80.6 °F 85.4 °F 73.4 °F 79% 30.01 in 6.2 mi ESE 5.8 mph - N/A   Partly Cloudy
1:00 AM 80.6 °F 86.2 °F 75.2 °F 84% 30.01 in 6.2 mi ESE 5.8 mph - N/A   Partly Cloudy
2:00 AM 80 °F - 73 °F 74% 29.99 in 19 mi East 5.8 mph - -   Scattered Clouds
2:00 AM 80.6 °F 85.4 °F 73.4 °F 79% 29.98 in 6.2 mi East 5.8 mph - N/A   Partly Cloudy
3:00 AM 78.8 °F - 73.4 °F 83% 29.98 in 5.0 mi East 4.6 mph - N/A Rain Rain Showers
4:00 AM 78.8 °F - 73.4 °F 83% 29.98 in 6.2 mi East 3.5 mph - N/A   Scattered Clouds
5:00 AM 78 °F - 73 °F 80% 29.98 in 19 mi ENE 4.6 mph - - Rain Light Rain Showers
5:00 AM 77.0 °F - 73.4 °F 89% 29.98 in 6.2 mi ENE 4.6 mph - N/A   Scattered Clouds
6:00 AM 78.8 °F - 73.4 °F 83% 29.98 in 6.2 mi ESE 6.9 mph - N/A   Mostly Cloudy
7:00 AM 78.8 °F - 71.6 °F 78% 30.01 in 6.2 mi East 6.9 mph - N/A   Scattered Clouds
8:00 AM 81 °F - 72 °F 68% 30.03 in 22 mi East 4.6 mph - -   Partly Cloudy
8:00 AM 80.6 °F 84.6 °F 71.6 °F 74% 30.01 in 6.2 mi East 4.6 mph - N/A   Partly Cloudy
9:00 AM 82.4 °F 88.2 °F 73.4 °F 74% 30.04 in 6.2 mi ESE 6.9 mph - N/A   Mostly Cloudy
10:00 AM 82.4 °F 88.2 °F 73.4 °F 74% 30.04 in 6.2 mi SE 6.9 mph - N/A   Scattered Clouds
11:00 AM 84 °F - 73 °F 63% 30.05 in 28 mi SE 9.2 mph - -   Partly Cloudy
11:00 AM 84.2 °F 90.9 °F 73.4 °F 70% 30.04 in 6.2 mi SE 9.2 mph - N/A   Scattered Clouds
12:00 PM 82.4 °F 88.2 °F 73.4 °F 74% 30.01 in 6.2 mi SE 10.4 mph - N/A   Scattered Clouds
1:00 PM 86.0 °F 90.4 °F 69.8 °F 58% 29.98 in 6.2 mi East 8.1 mph - N/A   Partly Cloudy
2:00 PM 83 °F - 71 °F 58% 29.99 in 19 mi East 9.2 mph - -   Scattered Clouds
2:00 PM 82.4 °F 86.3 °F 69.8 °F 66% 29.98 in 6.2 mi East 9.2 mph - N/A   Partly Cloudy
3:00 PM 78.8 °F - 69.8 °F 74% 29.98 in 6.2 mi NNE 8.1 mph - N/A Rain Light Rain Showers
4:00 PM 80.6 °F 84.6 °F 71.6 °F 74% 29.98 in 6.2 mi North 4.6 mph - N/A   Scattered Clouds
5:00 PM 81 °F - 72 °F 67% 29.98 in 28 mi East 5.8 mph - -   Scattered Clouds
5:00 PM 80.6 °F 84.6 °F 71.6 °F 74% 29.98 in 6.2 mi Variable 3.5 mph - N/A   Partly Cloudy
6:00 PM 80.6 °F 84.6 °F 71.6 °F 74% 29.98 in 6.2 mi ENE 4.6 mph - N/A   Partly Cloudy
7:00 PM 80.6 °F 84.6 °F 71.6 °F 74% 29.98 in 6.2 mi Variable 3.5 mph - N/A   Partly Cloudy
8:00 PM 80 °F - 72 °F 71% 30.00 in 28 mi East 10.4 mph - -   Partly Cloudy
8:00 PM 80.6 °F 85.4 °F 73.4 °F 79% 30.01 in 6.2 mi ENE 5.8 mph - N/A   Partly Cloudy
9:00 PM 80.6 °F 84.6 °F 71.6 °F 74% 30.01 in 6.2 mi East 8.1 mph - N/A   Partly Cloudy
10:00 PM 80.6 °F 84.6 °F 71.6 °F 74% 30.01 in 6.2 mi East 9.2 mph - N/A   Scattered Clouds
11:00 PM 80 °F - 72 °F 70% 30.02 in 28 mi ENE 3.5 mph - -   Partly Cloudy
11:00 PM 80.6 °F 84.6 °F 71.6 °F 74% 30.01 in 6.2 mi ENE 5.8 mph - N/A   Scattered Clouds